Year,Month,Day,Hour,Minute,Value (Times are PST for windspeed in km/hr)
2018,02,28,00,00,0.00
2018,02,28,00,01,0.00
2018,02,28,00,02,0.00
2018,02,28,00,03,0.10
2018,02,28,00,04,0.00
2018,02,28,00,05,0.00
2018,02,28,00,06,0.00
2018,02,28,00,07,0.00
2018,02,28,00,08,0.00
2018,02,28,00,09,0.00
2018,02,28,00,10,0.00
2018,02,28,00,11,0.00
2018,02,28,00,12,0.00
2018,02,28,00,13,0.00
2018,02,28,00,14,0.00
2018,02,28,00,15,0.00
2018,02,28,00,16,0.00
2018,02,28,00,17,0.00
2018,02,28,00,18,0.00
2018,02,28,00,19,0.00
2018,02,28,00,20,0.00
2018,02,28,00,21,0.00
2018,02,28,00,22,0.00
2018,02,28,00,23,0.00
2018,02,28,00,24,0.00
2018,02,28,00,25,0.00
2018,02,28,00,26,0.00
2018,02,28,00,27,0.00
2018,02,28,00,28,0.00
2018,02,28,00,29,0.00
2018,02,28,00,30,0.00
2018,02,28,00,31,0.00
2018,02,28,00,32,0.00
2018,02,28,00,33,0.00
2018,02,28,00,34,0.00
2018,02,28,00,35,0.00
2018,02,28,00,36,0.00
2018,02,28,00,37,0.00
2018,02,28,00,38,0.00
2018,02,28,00,39,0.00
2018,02,28,00,40,0.00
2018,02,28,00,41,0.00
2018,02,28,00,42,0.00
2018,02,28,00,43,0.00
2018,02,28,00,44,0.00
2018,02,28,00,45,0.00
2018,02,28,00,46,0.00
2018,02,28,00,47,0.00
2018,02,28,00,48,0.00
2018,02,28,00,49,0.00
2018,02,28,00,50,0.00
2018,02,28,00,51,0.00
2018,02,28,00,52,0.00
2018,02,28,00,53,0.00
2018,02,28,00,54,0.00
2018,02,28,00,55,0.00
2018,02,28,00,56,0.00
2018,02,28,00,57,0.00
2018,02,28,00,58,0.00
2018,02,28,00,59,0.00
2018,02,28,01,00,0.00
2018,02,28,01,01,0.00
2018,02,28,01,02,0.00
2018,02,28,01,03,0.00
2018,02,28,01,04,0.00
2018,02,28,01,05,0.00
2018,02,28,01,06,0.00
2018,02,28,01,07,0.00
2018,02,28,01,08,0.00
2018,02,28,01,09,0.00
2018,02,28,01,10,0.00
2018,02,28,01,11,0.00
2018,02,28,01,12,0.00
2018,02,28,01,13,0.70
2018,02,28,01,14,0.70
2018,02,28,01,15,0.00
2018,02,28,01,16,0.00
2018,02,28,01,17,0.00
2018,02,28,01,18,0.00
2018,02,28,01,19,0.00
2018,02,28,01,20,0.00
2018,02,28,01,21,0.00
2018,02,28,01,22,0.00
2018,02,28,01,23,0.00
2018,02,28,01,24,0.00
2018,02,28,01,25,4.00
2018,02,28,01,26,1.80
2018,02,28,01,27,0.00
2018,02,28,01,28,0.00
2018,02,28,01,29,0.00
2018,02,28,01,30,0.00
2018,02,28,01,31,0.00
2018,02,28,01,32,0.00
2018,02,28,01,33,0.00
2018,02,28,01,34,0.00
2018,02,28,01,35,0.00
2018,02,28,01,36,0.00
2018,02,28,01,37,0.00
2018,02,28,01,38,0.00
2018,02,28,01,39,0.20
2018,02,28,01,40,0.30
2018,02,28,01,41,1.70
2018,02,28,01,42,1.70
2018,02,28,01,43,0.50
2018,02,28,01,44,0.00
2018,02,28,01,45,0.00
2018,02,28,01,46,0.00
2018,02,28,01,47,1.00
2018,02,28,01,48,1.10
2018,02,28,01,49,1.10
2018,02,28,01,50,0.50
2018,02,28,01,51,1.30
2018,02,28,01,52,0.10
2018,02,28,01,53,0.00
2018,02,28,01,54,0.50
2018,02,28,01,55,0.20
2018,02,28,01,56,0.10
2018,02,28,01,57,0.00
2018,02,28,01,58,0.00
2018,02,28,01,59,0.00
2018,02,28,02,00,0.00
2018,02,28,02,01,0.00
2018,02,28,02,02,0.00
2018,02,28,02,03,0.00
2018,02,28,02,04,0.00
2018,02,28,02,05,0.00
2018,02,28,02,06,0.00
2018,02,28,02,07,0.00
2018,02,28,02,08,0.00
2018,02,28,02,09,0.00
2018,02,28,02,10,0.00
2018,02,28,02,11,0.00
2018,02,28,02,12,0.00
2018,02,28,02,13,0.00
2018,02,28,02,14,0.00
2018,02,28,02,15,0.10
2018,02,28,02,16,0.00
2018,02,28,02,17,0.00
2018,02,28,02,18,0.00
2018,02,28,02,19,0.00
2018,02,28,02,20,0.20
2018,02,28,02,21,1.80
2018,02,28,02,22,0.70
2018,02,28,02,23,1.60
2018,02,28,02,24,2.20
2018,02,28,02,25,2.90
2018,02,28,02,26,1.00
2018,02,28,02,27,0.70
2018,02,28,02,28,1.70
2018,02,28,02,29,1.60
2018,02,28,02,30,1.10
2018,02,28,02,31,0.00
2018,02,28,02,32,0.10
2018,02,28,02,33,2.90
2018,02,28,02,34,5.70
2018,02,28,02,35,4.10
2018,02,28,02,36,4.20
2018,02,28,02,37,3.30
2018,02,28,02,38,4.30
2018,02,28,02,39,3.70
2018,02,28,02,40,3.30
2018,02,28,02,41,2.80
2018,02,28,02,42,1.20
2018,02,28,02,43,2.40
2018,02,28,02,44,2.30
2018,02,28,02,45,0.50
2018,02,28,02,46,0.00
2018,02,28,02,47,0.00
2018,02,28,02,48,0.40
2018,02,28,02,49,1.90
2018,02,28,02,50,1.30
2018,02,28,02,51,1.90
2018,02,28,02,52,1.00
2018,02,28,02,53,0.00
2018,02,28,02,54,0.00
2018,02,28,02,55,0.00
2018,02,28,02,56,0.00
2018,02,28,02,57,0.00
2018,02,28,02,58,0.00
2018,02,28,02,59,0.10
2018,02,28,03,00,0.00
2018,02,28,03,01,0.00
2018,02,28,03,02,0.00
2018,02,28,03,03,0.00
2018,02,28,03,04,0.00
2018,02,28,03,05,0.00
2018,02,28,03,06,0.00
2018,02,28,03,07,0.00
2018,02,28,03,08,0.00
2018,02,28,03,09,0.00
2018,02,28,03,10,0.00
2018,02,28,03,11,0.00
2018,02,28,03,12,0.00
2018,02,28,03,13,0.20
2018,02,28,03,14,3.90
2018,02,28,03,15,0.70
2018,02,28,03,16,0.00
2018,02,28,03,17,0.30
2018,02,28,03,18,2.90
2018,02,28,03,19,2.90
2018,02,28,03,20,2.40
2018,02,28,03,21,3.90
2018,02,28,03,22,2.10
2018,02,28,03,23,2.90
2018,02,28,03,24,0.40
2018,02,28,03,25,6.40
2018,02,28,03,26,10.70
2018,02,28,03,27,6.00
2018,02,28,03,28,4.50
2018,02,28,03,29,3.20
2018,02,28,03,30,2.50
2018,02,28,03,31,4.00
2018,02,28,03,32,3.40
2018,02,28,03,33,3.10
2018,02,28,03,34,2.70
2018,02,28,03,35,2.50
2018,02,28,03,36,3.80
2018,02,28,03,37,2.00
2018,02,28,03,38,2.20
2018,02,28,03,39,3.10
2018,02,28,03,40,2.70
2018,02,28,03,41,2.30
2018,02,28,03,42,0.20
2018,02,28,03,43,2.30
2018,02,28,03,44,1.40
2018,02,28,03,45,3.50
2018,02,28,03,46,3.20
2018,02,28,03,47,4.20
2018,02,28,03,48,3.30
2018,02,28,03,49,3.20
2018,02,28,03,50,3.10
2018,02,28,03,51,2.70
2018,02,28,03,52,2.30
2018,02,28,03,53,2.00
2018,02,28,03,54,2.00
2018,02,28,03,55,2.10
2018,02,28,03,56,0.10
2018,02,28,03,57,0.30
2018,02,28,03,58,0.00
2018,02,28,03,59,0.00
2018,02,28,04,00,0.00
2018,02,28,04,01,0.00
2018,02,28,04,02,1.70
2018,02,28,04,03,1.10
2018,02,28,04,04,1.00
2018,02,28,04,05,0.90
2018,02,28,04,06,1.20
2018,02,28,04,07,0.10
2018,02,28,04,08,0.00
2018,02,28,04,09,0.10
2018,02,28,04,10,0.40
2018,02,28,04,11,1.40
2018,02,28,04,12,4.60
2018,02,28,04,13,2.30
2018,02,28,04,14,2.80
2018,02,28,04,15,2.90
2018,02,28,04,16,2.40
2018,02,28,04,17,0.20
2018,02,28,04,18,0.70
2018,02,28,04,19,4.30
2018,02,28,04,20,4.20
2018,02,28,04,21,3.40
2018,02,28,04,22,4.10
2018,02,28,04,23,4.90
2018,02,28,04,24,7.20
2018,02,28,04,25,5.70
2018,02,28,04,26,6.30
2018,02,28,04,27,6.00
2018,02,28,04,28,7.30
2018,02,28,04,29,6.70
2018,02,28,04,30,7.60
2018,02,28,04,31,5.90
2018,02,28,04,32,9.30
2018,02,28,04,33,5.10
2018,02,28,04,34,8.30
2018,02,28,04,35,10.20
2018,02,28,04,36,7.90
2018,02,28,04,37,9.50
2018,02,28,04,38,12.30
2018,02,28,04,39,10.70
2018,02,28,04,40,8.50
2018,02,28,04,41,11.60
2018,02,28,04,42,13.50
2018,02,28,04,43,8.80
2018,02,28,04,44,12.50
2018,02,28,04,45,12.00
2018,02,28,04,46,14.30
2018,02,28,04,47,10.70
2018,02,28,04,48,11.40
2018,02,28,04,49,12.90
2018,02,28,04,50,12.10
2018,02,28,04,51,14.20
2018,02,28,04,52,13.70
2018,02,28,04,53,10.30
2018,02,28,04,54,15.20
2018,02,28,04,55,14.00
2018,02,28,04,56,11.70
2018,02,28,04,57,13.40
2018,02,28,04,58,13.50
2018,02,28,04,59,7.80
2018,02,28,05,00,11.90
2018,02,28,05,01,13.00
2018,02,28,05,02,17.80
2018,02,28,05,03,12.00
2018,02,28,05,04,11.70
2018,02,28,05,05,9.20
2018,02,28,05,06,15.00
2018,02,28,05,07,15.30
2018,02,28,05,08,14.60
2018,02,28,05,09,13.50
2018,02,28,05,10,15.20
2018,02,28,05,11,14.80
2018,02,28,05,12,14.40
2018,02,28,05,13,17.50
2018,02,28,05,14,13.80
2018,02,28,05,15,17.00
2018,02,28,05,16,19.40
2018,02,28,05,17,18.40
2018,02,28,05,18,18.10
2018,02,28,05,19,17.30
2018,02,28,05,20,14.70
2018,02,28,05,21,14.40
2018,02,28,05,22,11.60
2018,02,28,05,23,12.00
2018,02,28,05,24,11.70
2018,02,28,05,25,14.10
2018,02,28,05,26,11.00
2018,02,28,05,27,14.20
2018,02,28,05,28,14.40
2018,02,28,05,29,11.10
2018,02,28,05,30,10.60
2018,02,28,05,31,15.40
2018,02,28,05,32,13.50
2018,02,28,05,33,14.40
2018,02,28,05,34,11.30
2018,02,28,05,35,11.20
2018,02,28,05,36,12.80
2018,02,28,05,37,15.60
2018,02,28,05,38,11.30
2018,02,28,05,39,11.70
2018,02,28,05,40,11.60
2018,02,28,05,41,12.20
2018,02,28,05,42,14.50
2018,02,28,05,43,10.30
2018,02,28,05,44,5.20
2018,02,28,05,45,13.50
2018,02,28,05,46,10.50
2018,02,28,05,47,10.30
2018,02,28,05,48,7.10
2018,02,28,05,49,14.30
2018,02,28,05,50,12.10
2018,02,28,05,51,6.70
2018,02,28,05,52,10.40
2018,02,28,05,53,9.70
2018,02,28,05,54,12.80
2018,02,28,05,55,18.10
2018,02,28,05,56,9.20
2018,02,28,05,57,17.80
2018,02,28,05,58,13.80
2018,02,28,05,59,19.50
2018,02,28,06,00,23.60
2018,02,28,06,01,19.70
2018,02,28,06,02,19.10
2018,02,28,06,03,14.20
2018,02,28,06,04,17.90
2018,02,28,06,05,17.30
2018,02,28,06,06,18.20
2018,02,28,06,07,19.00
2018,02,28,06,08,20.40
2018,02,28,06,09,17.70
2018,02,28,06,10,13.80
2018,02,28,06,11,25.20
2018,02,28,06,12,25.80
2018,02,28,06,13,24.00
2018,02,28,06,14,16.10
2018,02,28,06,15,22.40
2018,02,28,06,16,16.80
2018,02,28,06,17,27.20
2018,02,28,06,18,21.50
2018,02,28,06,19,21.40
2018,02,28,06,20,23.30
2018,02,28,06,21,23.50
2018,02,28,06,22,17.00
2018,02,28,06,23,18.80
2018,02,28,06,24,26.00
2018,02,28,06,25,26.60
2018,02,28,06,26,25.00
2018,02,28,06,27,15.60
2018,02,28,06,28,20.20
2018,02,28,06,29,19.50
2018,02,28,06,30,26.90
2018,02,28,06,31,24.50
2018,02,28,06,32,23.10
2018,02,28,06,33,12.90
2018,02,28,06,34,16.80
2018,02,28,06,35,23.90
2018,02,28,06,36,18.40
2018,02,28,06,37,26.50
2018,02,28,06,38,18.70
2018,02,28,06,39,21.60
2018,02,28,06,40,25.40
2018,02,28,06,41,21.30
2018,02,28,06,42,22.80
2018,02,28,06,43,26.80
2018,02,28,06,44,21.80
2018,02,28,06,45,16.40
2018,02,28,06,46,21.30
2018,02,28,06,47,20.80
2018,02,28,06,48,21.80
2018,02,28,06,49,22.40
2018,02,28,06,50,19.40
2018,02,28,06,51,26.30
2018,02,28,06,52,18.80
2018,02,28,06,53,19.70
2018,02,28,06,54,12.50
2018,02,28,06,55,20.60
2018,02,28,06,56,16.60
2018,02,28,06,57,15.20
2018,02,28,06,58,16.20
2018,02,28,06,59,21.10
2018,02,28,07,00,16.70
2018,02,28,07,01,22.20
2018,02,28,07,02,19.60
2018,02,28,07,03,15.90
2018,02,28,07,04,15.50
2018,02,28,07,05,20.10
2018,02,28,07,06,26.00
2018,02,28,07,07,28.50
2018,02,28,07,08,22.20
2018,02,28,07,09,23.70
2018,02,28,07,10,22.80
2018,02,28,07,11,27.00
2018,02,28,07,12,24.90
2018,02,28,07,13,23.80
2018,02,28,07,14,23.30
2018,02,28,07,15,27.40
2018,02,28,07,16,18.50
2018,02,28,07,17,24.70
2018,02,28,07,18,24.40
2018,02,28,07,19,28.90
2018,02,28,07,20,37.70
2018,02,28,07,21,26.30
2018,02,28,07,22,30.50
2018,02,28,07,23,24.80
2018,02,28,07,24,21.60
2018,02,28,07,25,25.60
2018,02,28,07,26,25.80
2018,02,28,07,27,28.30
2018,02,28,07,28,29.60
2018,02,28,07,29,27.10
2018,02,28,07,30,27.70
2018,02,28,07,31,23.20
2018,02,28,07,32,29.00
2018,02,28,07,33,26.50
2018,02,28,07,34,30.30
2018,02,28,07,35,24.30
2018,02,28,07,36,21.90
2018,02,28,07,37,21.30
2018,02,28,07,38,22.50
2018,02,28,07,39,28.80
2018,02,28,07,40,20.10
2018,02,28,07,41,19.10
2018,02,28,07,42,22.60
2018,02,28,07,43,24.80
2018,02,28,07,44,26.30
2018,02,28,07,45,19.10
2018,02,28,07,46,21.60
2018,02,28,07,47,31.10
2018,02,28,07,48,26.00
2018,02,28,07,49,20.20
2018,02,28,07,50,23.30
2018,02,28,07,51,22.70
2018,02,28,07,52,24.70
2018,02,28,07,53,27.40
2018,02,28,07,54,21.20
2018,02,28,07,55,23.80
2018,02,28,07,56,20.00
2018,02,28,07,57,22.30
2018,02,28,07,58,22.80
2018,02,28,07,59,25.40
2018,02,28,08,00,26.60
2018,02,28,08,01,27.10
2018,02,28,08,02,23.10
2018,02,28,08,03,31.00
2018,02,28,08,04,27.20
2018,02,28,08,05,25.20
2018,02,28,08,06,22.50
2018,02,28,08,07,18.10
2018,02,28,08,08,24.30
2018,02,28,08,09,28.60
2018,02,28,08,10,28.20
2018,02,28,08,11,23.80
2018,02,28,08,12,20.60
2018,02,28,08,13,20.20
2018,02,28,08,14,23.50
2018,02,28,08,15,24.10
2018,02,28,08,16,21.80
2018,02,28,08,17,29.00
2018,02,28,08,18,25.40
2018,02,28,08,19,24.60
2018,02,28,08,20,26.10
2018,02,28,08,21,28.90
2018,02,28,08,22,26.40
2018,02,28,08,23,24.80
2018,02,28,08,24,17.70
2018,02,28,08,25,27.10
2018,02,28,08,26,27.10
2018,02,28,08,27,25.20
2018,02,28,08,28,24.10
2018,02,28,08,29,19.90
2018,02,28,08,30,21.00
2018,02,28,08,31,19.00
2018,02,28,08,32,19.50
2018,02,28,08,33,27.10
2018,02,28,08,34,29.70
2018,02,28,08,35,20.60
2018,02,28,08,36,17.90
2018,02,28,08,37,22.10
2018,02,28,08,38,25.10
2018,02,28,08,39,23.70
2018,02,28,08,40,25.30
2018,02,28,08,41,28.10
2018,02,28,08,42,26.30
2018,02,28,08,43,21.70
2018,02,28,08,44,18.50
2018,02,28,08,45,26.20
2018,02,28,08,46,20.10
2018,02,28,08,47,20.00
2018,02,28,08,48,23.50
2018,02,28,08,49,18.80
2018,02,28,08,50,25.30
2018,02,28,08,51,28.10
2018,02,28,08,52,21.50
2018,02,28,08,53,26.20
2018,02,28,08,54,30.40
2018,02,28,08,55,30.10
2018,02,28,08,56,35.80
2018,02,28,08,57,27.40
2018,02,28,08,58,29.80
2018,02,28,08,59,21.40
2018,02,28,09,00,23.20
2018,02,28,09,01,22.30
2018,02,28,09,02,26.40
2018,02,28,09,03,23.80
2018,02,28,09,04,32.50
2018,02,28,09,05,24.90
2018,02,28,09,06,25.60
2018,02,28,09,07,19.90
2018,02,28,09,08,27.40
2018,02,28,09,09,27.40
2018,02,28,09,10,25.70
2018,02,28,09,11,19.10
2018,02,28,09,12,29.00
2018,02,28,09,13,22.30
2018,02,28,09,14,19.10
2018,02,28,09,15,19.10
2018,02,28,09,16,28.70
2018,02,28,09,17,21.90
2018,02,28,09,18,30.30
2018,02,28,09,19,21.90
2018,02,28,09,20,25.60
2018,02,28,09,21,33.80
2018,02,28,09,22,23.80
2018,02,28,09,23,20.00
2018,02,28,09,24,16.60
2018,02,28,09,25,14.10
2018,02,28,09,26,24.70
2018,02,28,09,27,27.80
2018,02,28,09,28,21.20
2018,02,28,09,29,32.20
2018,02,28,09,30,30.90
2018,02,28,09,31,28.70
2018,02,28,09,32,25.40
2018,02,28,09,33,29.30
2018,02,28,09,34,27.00
2018,02,28,09,35,20.10
2018,02,28,09,36,22.80
2018,02,28,09,37,30.30
2018,02,28,09,38,27.70
2018,02,28,09,39,33.90
2018,02,28,09,40,31.60
2018,02,28,09,41,30.70
2018,02,28,09,42,39.80
2018,02,28,09,43,39.80
2018,02,28,09,44,32.50
2018,02,28,09,45,34.70
2018,02,28,09,46,42.00
2018,02,28,09,47,39.60
2018,02,28,09,48,45.70
2018,02,28,09,49,36.00
2018,02,28,09,50,34.90
2018,02,28,09,51,39.20
2018,02,28,09,52,42.90
2018,02,28,09,53,37.10
2018,02,28,09,54,37.80
2018,02,28,09,55,39.40
2018,02,28,09,56,35.90
2018,02,28,09,57,35.90
2018,02,28,09,58,31.90
2018,02,28,09,59,31.90
2018,02,28,10,00,33.40
2018,02,28,10,01,35.40
2018,02,28,10,02,30.40
2018,02,28,10,03,37.30
2018,02,28,10,04,33.10
2018,02,28,10,05,35.30
2018,02,28,10,06,35.60
2018,02,28,10,07,35.20
2018,02,28,10,08,43.70
2018,02,28,10,09,33.60
2018,02,28,10,10,33.30
2018,02,28,10,11,54.80
2018,02,28,10,12,45.40
2018,02,28,10,13,39.20
2018,02,28,10,14,41.70
2018,02,28,10,15,37.00
2018,02,28,10,16,30.30
2018,02,28,10,17,36.40
2018,02,28,10,18,48.20
2018,02,28,10,19,40.10
2018,02,28,10,20,40.90
2018,02,28,10,21,34.80
2018,02,28,10,22,38.70
2018,02,28,10,23,39.60
2018,02,28,10,24,34.20
2018,02,28,10,25,46.80
2018,02,28,10,26,35.20
2018,02,28,10,27,40.80
2018,02,28,10,28,43.30
2018,02,28,10,29,40.90
2018,02,28,10,30,39.10
2018,02,28,10,31,32.70
2018,02,28,10,32,41.40
2018,02,28,10,33,43.60
2018,02,28,10,34,42.10
2018,02,28,10,35,40.60
2018,02,28,10,36,35.30
2018,02,28,10,37,42.00
2018,02,28,10,38,40.40
2018,02,28,10,39,48.80
2018,02,28,10,40,40.70
2018,02,28,10,41,41.00
2018,02,28,10,42,37.00
2018,02,28,10,43,31.60
2018,02,28,10,44,42.40
2018,02,28,10,45,47.70
2018,02,28,10,46,44.10
2018,02,28,10,47,37.70
2018,02,28,10,48,34.00
2018,02,28,10,49,39.10
2018,02,28,10,50,45.80
2018,02,28,10,51,42.40
2018,02,28,10,52,39.40
2018,02,28,10,53,41.80
2018,02,28,10,54,47.70
2018,02,28,10,55,36.60
2018,02,28,10,56,34.30
2018,02,28,10,57,44.30
2018,02,28,10,58,37.60
2018,02,28,10,59,40.40
2018,02,28,11,00,45.80
2018,02,28,11,01,39.00
2018,02,28,11,02,45.50
2018,02,28,11,03,42.90
2018,02,28,11,04,48.90
2018,02,28,11,05,43.60
2018,02,28,11,06,44.60
2018,02,28,11,07,43.50
2018,02,28,11,08,41.90
2018,02,28,11,09,33.70
2018,02,28,11,10,50.10
2018,02,28,11,11,51.00
2018,02,28,11,12,37.90
2018,02,28,11,13,43.40
2018,02,28,11,14,48.50
2018,02,28,11,15,40.00
2018,02,28,11,16,39.20
2018,02,28,11,17,35.80
2018,02,28,11,18,42.90
2018,02,28,11,19,40.20
2018,02,28,11,20,43.30
2018,02,28,11,21,46.80
2018,02,28,11,22,47.00
2018,02,28,11,23,41.80
2018,02,28,11,24,44.10
2018,02,28,11,25,47.10
2018,02,28,11,26,37.30
2018,02,28,11,27,38.60
2018,02,28,11,28,42.60
2018,02,28,11,29,41.30
2018,02,28,11,30,44.80
2018,02,28,11,31,44.30
2018,02,28,11,32,39.40
2018,02,28,11,33,37.90
2018,02,28,11,34,43.50
2018,02,28,11,35,35.80
2018,02,28,11,36,41.60
2018,02,28,11,37,36.80
2018,02,28,11,38,44.50
2018,02,28,11,39,49.70
2018,02,28,11,40,39.60
2018,02,28,11,41,38.20
2018,02,28,11,42,45.70
2018,02,28,11,43,46.90
2018,02,28,11,44,38.50
2018,02,28,11,45,43.50
2018,02,28,11,46,45.40
2018,02,28,11,47,37.40
2018,02,28,11,48,45.10
2018,02,28,11,49,42.70
2018,02,28,11,50,48.50
2018,02,28,11,51,38.50
2018,02,28,11,52,37.70
2018,02,28,11,53,43.00
2018,02,28,11,54,40.90
2018,02,28,11,55,40.40
2018,02,28,11,56,40.80
2018,02,28,11,57,33.40
2018,02,28,11,58,39.00
2018,02,28,11,59,40.60
2018,02,28,12,00,38.60
2018,02,28,12,01,36.40
2018,02,28,12,02,36.50
2018,02,28,12,03,38.30
2018,02,28,12,04,37.90
2018,02,28,12,05,38.50
2018,02,28,12,06,33.00
2018,02,28,12,07,35.80
2018,02,28,12,08,39.30
2018,02,28,12,09,35.50
2018,02,28,12,10,31.00
2018,02,28,12,11,33.60
2018,02,28,12,12,46.40
2018,02,28,12,13,36.90
2018,02,28,12,14,35.30
2018,02,28,12,15,44.70
2018,02,28,12,16,44.50
2018,02,28,12,17,44.90
2018,02,28,12,18,47.00
2018,02,28,12,19,45.50
2018,02,28,12,20,39.20
2018,02,28,12,21,35.90
2018,02,28,12,22,34.60
2018,02,28,12,23,40.10
2018,02,28,12,24,43.50
2018,02,28,12,25,35.40
2018,02,28,12,26,40.80
2018,02,28,12,27,42.20
2018,02,28,12,28,33.40
2018,02,28,12,29,33.90
2018,02,28,12,30,27.90
2018,02,28,12,31,44.90
2018,02,28,12,32,45.00
2018,02,28,12,33,41.20
2018,02,28,12,34,42.10
2018,02,28,12,35,37.50
2018,02,28,12,36,44.10
2018,02,28,12,37,45.50
2018,02,28,12,38,40.30
2018,02,28,12,39,45.60
2018,02,28,12,40,38.80
2018,02,28,12,41,39.90
2018,02,28,12,42,35.80
2018,02,28,12,43,37.10
2018,02,28,12,44,37.00
2018,02,28,12,45,44.20
2018,02,28,12,46,36.70
2018,02,28,12,47,33.30
2018,02,28,12,48,38.30
2018,02,28,12,49,30.50
2018,02,28,12,50,37.70
2018,02,28,12,51,45.20
2018,02,28,12,52,39.50
2018,02,28,12,53,39.00
2018,02,28,12,54,36.40
2018,02,28,12,55,30.00
2018,02,28,12,56,34.00
2018,02,28,12,57,39.10
2018,02,28,12,58,38.70
2018,02,28,12,59,45.90
2018,02,28,13,00,36.50
2018,02,28,13,01,35.10
2018,02,28,13,02,40.90
2018,02,28,13,03,34.40
2018,02,28,13,04,31.70
2018,02,28,13,05,36.40
2018,02,28,13,06,37.60
2018,02,28,13,07,31.50
2018,02,28,13,08,33.60
2018,02,28,13,09,34.50
2018,02,28,13,10,43.00
2018,02,28,13,11,42.70
2018,02,28,13,12,38.10
2018,02,28,13,13,35.50
2018,02,28,13,14,41.20
2018,02,28,13,15,41.70
2018,02,28,13,16,43.40
2018,02,28,13,17,33.90
2018,02,28,13,18,36.30
2018,02,28,13,19,44.30
2018,02,28,13,20,49.00
2018,02,28,13,21,45.40
2018,02,28,13,22,42.60
2018,02,28,13,23,47.70
2018,02,28,13,24,47.30
2018,02,28,13,25,45.70
2018,02,28,13,26,43.40
2018,02,28,13,27,43.80
2018,02,28,13,28,40.40
2018,02,28,13,29,36.30
2018,02,28,13,30,40.80
2018,02,28,13,31,40.60
2018,02,28,13,32,45.50
2018,02,28,13,33,39.50
2018,02,28,13,34,38.90
2018,02,28,13,35,29.50
2018,02,28,13,36,32.40
2018,02,28,13,37,43.80
2018,02,28,13,38,39.90
2018,02,28,13,39,43.60
2018,02,28,13,40,44.80
2018,02,28,13,41,46.00
2018,02,28,13,42,36.90
2018,02,28,13,43,45.70
2018,02,28,13,44,40.50
2018,02,28,13,45,43.50
2018,02,28,13,46,38.50
2018,02,28,13,47,38.10
2018,02,28,13,48,32.30
2018,02,28,13,49,36.70
2018,02,28,13,50,31.10
2018,02,28,13,51,34.80
2018,02,28,13,52,44.90
2018,02,28,13,53,37.60
2018,02,28,13,54,34.90
2018,02,28,13,55,45.40
2018,02,28,13,56,40.10
2018,02,28,13,57,26.60
2018,02,28,13,58,34.90
2018,02,28,13,59,30.70
2018,02,28,14,00,23.70
2018,02,28,14,01,36.50
2018,02,28,14,02,32.00
2018,02,28,14,03,32.60
2018,02,28,14,04,31.30
2018,02,28,14,05,37.50
2018,02,28,14,06,39.70
2018,02,28,14,07,52.20
2018,02,28,14,08,47.90
2018,02,28,14,09,37.30
2018,02,28,14,10,31.90
2018,02,28,14,11,43.90
2018,02,28,14,12,43.70
2018,02,28,14,13,44.50
2018,02,28,14,14,46.00
2018,02,28,14,15,39.50
2018,02,28,14,16,42.90
2018,02,28,14,17,46.90
2018,02,28,14,18,49.80
2018,02,28,14,19,46.10
2018,02,28,14,20,32.40
2018,02,28,14,21,41.70
2018,02,28,14,22,40.80
2018,02,28,14,23,42.40
2018,02,28,14,24,34.90
2018,02,28,14,25,40.70
2018,02,28,14,26,43.30
2018,02,28,14,27,39.80
2018,02,28,14,28,41.80
2018,02,28,14,29,36.80
2018,02,28,14,30,35.90
2018,02,28,14,31,33.40
2018,02,28,14,32,36.10
2018,02,28,14,33,37.10
2018,02,28,14,34,29.50
2018,02,28,14,35,40.80
2018,02,28,14,36,39.00
2018,02,28,14,37,40.90
2018,02,28,14,38,44.70
2018,02,28,14,39,38.30
2018,02,28,14,40,49.50
2018,02,28,14,41,46.00
2018,02,28,14,42,39.10
2018,02,28,14,43,43.00
2018,02,28,14,44,42.40
2018,02,28,14,45,46.90
2018,02,28,14,46,38.00
2018,02,28,14,47,47.70
2018,02,28,14,48,42.90
2018,02,28,14,49,43.70
2018,02,28,14,50,43.00
2018,02,28,14,51,46.70
2018,02,28,14,52,50.90
2018,02,28,14,53,50.30
2018,02,28,14,54,47.10
2018,02,28,14,55,41.50
2018,02,28,14,56,41.80
2018,02,28,14,57,35.30
2018,02,28,14,58,35.80
2018,02,28,14,59,42.20
2018,02,28,15,00,46.40
2018,02,28,15,01,37.10
2018,02,28,15,02,42.10
2018,02,28,15,03,42.40
2018,02,28,15,04,34.20
2018,02,28,15,05,34.80
2018,02,28,15,06,42.10
2018,02,28,15,07,30.30
2018,02,28,15,08,29.90
2018,02,28,15,09,27.80
2018,02,28,15,10,39.60
2018,02,28,15,11,39.30
2018,02,28,15,12,27.50
2018,02,28,15,13,30.30
2018,02,28,15,14,31.70
2018,02,28,15,15,36.70
2018,02,28,15,16,32.80
2018,02,28,15,17,37.90
2018,02,28,15,18,31.10
2018,02,28,15,19,38.10
2018,02,28,15,20,35.80
2018,02,28,15,21,28.70
2018,02,28,15,22,31.50
2018,02,28,15,23,33.50
2018,02,28,15,24,33.10
2018,02,28,15,25,33.80
2018,02,28,15,26,28.20
2018,02,28,15,27,30.90
2018,02,28,15,28,36.50
2018,02,28,15,29,31.80
2018,02,28,15,30,34.30
2018,02,28,15,31,32.80
2018,02,28,15,32,24.00
2018,02,28,15,33,27.10
2018,02,28,15,34,23.40
2018,02,28,15,35,26.10
2018,02,28,15,36,32.20
2018,02,28,15,37,27.50
2018,02,28,15,38,37.50
2018,02,28,15,39,41.00
2018,02,28,15,40,32.00
2018,02,28,15,41,34.40
2018,02,28,15,42,39.10
2018,02,28,15,43,32.70
2018,02,28,15,44,34.70
2018,02,28,15,45,29.70
2018,02,28,15,46,31.70
2018,02,28,15,47,28.50
2018,02,28,15,48,27.60
2018,02,28,15,49,29.50
2018,02,28,15,50,30.80
2018,02,28,15,51,31.90
2018,02,28,15,52,29.10
2018,02,28,15,53,25.00
2018,02,28,15,54,24.00
2018,02,28,15,55,17.20
2018,02,28,15,56,26.90
2018,02,28,15,57,23.20
2018,02,28,15,58,33.60
2018,02,28,15,59,28.30
2018,02,28,16,00,28.80
2018,02,28,16,01,27.30
2018,02,28,16,02,27.70
2018,02,28,16,03,37.20
2018,02,28,16,04,33.80
2018,02,28,16,05,37.60
2018,02,28,16,06,39.90
2018,02,28,16,07,41.60
2018,02,28,16,08,45.40
2018,02,28,16,09,38.70
2018,02,28,16,10,44.60
2018,02,28,16,11,32.00
2018,02,28,16,12,33.10
2018,02,28,16,13,38.10
2018,02,28,16,14,40.40
2018,02,28,16,15,40.80
2018,02,28,16,16,45.60
2018,02,28,16,17,35.60
2018,02,28,16,18,36.80
2018,02,28,16,19,32.50
2018,02,28,16,20,34.20
2018,02,28,16,21,40.00
2018,02,28,16,22,38.10
2018,02,28,16,23,42.30
2018,02,28,16,24,37.60
2018,02,28,16,25,37.10
2018,02,28,16,26,45.40
2018,02,28,16,27,25.60
2018,02,28,16,28,39.90
2018,02,28,16,29,39.40
2018,02,28,16,30,40.00
2018,02,28,16,31,42.50
2018,02,28,16,32,44.40
2018,02,28,16,33,41.40
2018,02,28,16,34,32.80
2018,02,28,16,35,38.40
2018,02,28,16,36,45.80
2018,02,28,16,37,38.70
2018,02,28,16,38,39.50
2018,02,28,16,39,38.60
2018,02,28,16,40,34.00
2018,02,28,16,41,34.00
2018,02,28,16,42,47.60
2018,02,28,16,43,49.80
2018,02,28,16,44,44.80
2018,02,28,16,45,42.40
2018,02,28,16,46,41.50
2018,02,28,16,47,40.90
2018,02,28,16,48,38.00
2018,02,28,16,49,35.00
2018,02,28,16,50,37.20
2018,02,28,16,51,47.10
2018,02,28,16,52,37.80
2018,02,28,16,53,49.50
2018,02,28,16,54,36.50
2018,02,28,16,55,42.40
2018,02,28,16,56,48.00
2018,02,28,16,57,43.40
2018,02,28,16,58,38.70
2018,02,28,16,59,47.30
2018,02,28,17,00,43.00
2018,02,28,17,01,37.90
2018,02,28,17,02,32.60
2018,02,28,17,03,42.30
2018,02,28,17,04,39.90
2018,02,28,17,05,31.60
2018,02,28,17,06,37.70
2018,02,28,17,07,41.40
2018,02,28,17,08,36.10
2018,02,28,17,09,38.40
2018,02,28,17,10,39.50
2018,02,28,17,11,42.10
2018,02,28,17,12,34.20
2018,02,28,17,13,38.10
2018,02,28,17,14,45.80
2018,02,28,17,15,35.00
2018,02,28,17,16,33.20
2018,02,28,17,17,39.30
2018,02,28,17,18,38.60
2018,02,28,17,19,39.60
2018,02,28,17,20,48.20
2018,02,28,17,21,46.70
2018,02,28,17,22,45.30
2018,02,28,17,23,44.00
2018,02,28,17,24,40.80
2018,02,28,17,25,39.60
2018,02,28,17,26,31.50
2018,02,28,17,27,39.30
2018,02,28,17,28,44.70
2018,02,28,17,29,40.80
2018,02,28,17,30,37.40
2018,02,28,17,31,38.60